{"data":{"norad_id":62619,"epoch":"2026-05-25T04:24:40.091904Z","epoch_age_seconds":52427,"freshness":"FRESH","line1":"1 62619U 25009L   26145.18379736  .00005386  00000+0  20773-3 0  9995","line2":"2 62619  97.4046 226.2086 0007675  55.0949 305.1010 15.26704684 75318","mean_motion":15.26704684,"eccentricity":0.0007675,"inclination_deg":97.4046,"raan_deg":226.2086,"arg_perigee_deg":55.0949,"mean_anomaly_deg":305.101,"bstar":0.00020773,"rev_number":7531,"period_min":94.32079531106,"perigee_km":480.40338630988,"apogee_km":490.93933214129,"semimajor_km":6863.8083592256,"source":"CELESTRAK","updated_at":"2026-05-25T13:38:03.128751Z"}}